Location: Austin
(30.3000°N, 97.7500°W)
Time: 04:30:38
(UTC-06:00)

Cosmos 1607 - Pass Details

Date: 05 February 2026
Orbit: 923 x 978 km, 65.0° (Epoch: 15 February)

Event Time Altitude Azimuth Distance (km) Brightness Sun altitude
Exits shadow 04:50:55 56° 30° (NNE) 1,143 4.4 -32.3°
Maximum altitude 04:51:41 60° 61° (ENE) 1,101 4.4 -32.1°
Drops below altitude 10° 04:57:57 10° 140° (SE) 2,711 6.8 -30.8°
Sets 05:00:33 0° 144° (SE) 3,659 7.5 -30.2°
